Volver al catálogo

SL-14 DEB

ActivoPO
NORAD 25187·DEBRIS·🇷🇺 Russia

Lanzado Aug 18, 1987 desde Plesetsk Cosmodrome

Loading…

Próximos Pases (próximas 24 horas)

TLE

ActualizadoSource: Space-Track

Época: Sep 12, 2026, 04:31 UTC

1 25187U 87068N   26255.18864738  .00010749  00000-0  16592-2 0  9993
2 25187  82.5309 162.7994 0002282  65.6866 294.4582 14.73273836473609

Sigue SL-14 DEB en tiempo real con AllMySat

Download on the App Store